Location: East-View Observatory
(46.8144°N, 92.0597°W)
Time: 00:48:29
(UTC-05:00)

N. Korean satellite - Visible Passes

Search period start: 16 October 2019 00:00
Search period end: 26 October 2019 00:00
Orbit: 455 x 508 km, 97.2° (Epoch: 15 October)

Date Brightness Start Highest point End Pass type
(mag) Time Alt. Az. Time Alt. Az. Time Alt. Az.
16 Oct 9.8 06:14:33 10° NE 06:17:06 18° E 06:19:39 10° SE visible
18 Oct 7.4 06:56:32 10° NNE 07:00:05 58° E 07:03:41 10° S visible
18 Oct 9.9 19:09:19 10° SW 19:11:39 17° W 19:14:00 10° NW visible
19 Oct 9.0 06:31:33 10° NE 06:34:43 28° E 06:37:55 10° SSE visible
19 Oct 8.6 18:43:04 10° SSW 18:46:12 33° W 18:49:21 10° NNW visible
20 Oct 10.1 06:07:03 10° NE 06:09:15 15° E 06:11:28 10° SE visible
21 Oct 10.5 19:28:25 10° WSW 19:29:17 11° W 19:30:10 10° WNW visible
22 Oct 7.9 06:48:45 10° NNE 06:52:16 46° E 06:55:49 10° S visible
22 Oct 9.6 19:01:06 10° SW 19:03:45 21° W 19:06:27 10° NW visible
23 Oct 9.3 06:23:52 10° NE 06:26:51 24° E 06:29:53 10° SSE visible
23 Oct 8.0 18:35:03 10° S 18:38:18 41° W 18:41:38 10° NNW visible
24 Oct 10.3 05:59:39 10° ENE 06:01:22 13° E 06:03:04 10° ESE visible
25 Oct 6.8 07:06:07 10° NNE 07:09:46 79° E 07:13:28 10° S visible
25 Oct 10.1 19:19:35 10° WSW 19:21:21 13° W 19:23:07 10° WNW visible
